Weather in Mikhaylovskoye

Russia / Nizhny Novgorod Oblast'     56°11′12″N   45°46′52″E
temp.,
°C
wind,
m/s
gust,
m/s
humid.,
%
clouds,
%
prec.,
mm/h
press.,
hPa
HPBL,
m
8 may, sat
sat800:00+5sw1194100 0.0 101712
03:00+4s119436 0.0 101710
06:00+7s118529 0.0 101879
09:00+12ese225965 0.0 1017870
12:00+15se344087 0.0 10161672
15:00+16se4544100 0.0 10141697
18:00+13se486930 0.0 1012755
21:00+10se41287100 0.0 1011404
9 may, sun
sun900:00+10sse41191100 0.0 1009325
03:00+11sse41281100 0.1 1008419
06:00+12sse51469100 0.1 1008613
09:00+15s51166100 0.1 1008796
12:00+17s61065100 0.0 10091319
15:00+13s31193100 3.7 1009668
18:00+10wnw4895100 4.1 1011480
21:00+8wnw3794100 4.8 1015462
10 may, mon
mon1000:00+6wnw3793100 0.3 1017484
03:00+5nw3894100 0.3 1019784
06:00+6nnw4888100 0.0 1023821
09:00+8nnw5870100 0.0 1025879
12:00+13n5746100 0.0 10261387
15:00+14n464011 0.0 10261681
18:00+13n47490 0.0 1027636
21:00+7nne38701 0.0 1029135
11 may, tue
tue1100:00+5ne23803 0.0 103160
03:00+4ne22934 0.0 103136
06:00+7ene25789 0.0 1032187
09:00+13ene46505 0.0 1033931
12:00+17ene35375 0.0 10321234
15:00+18ene45364 0.0 10301305
18:00+16e36502 0.0 1031270
21:00+10e23723 0.0 103152
12 may, wed
wed1200:00+8ene23795 0.0 103240
03:00+7ene26830 0.0 1031105
06:00+10ene387110 0.0 1031204
09:00+17e464617 0.0 1031695
12:00+20ese45375 0.0 10301175
15:00+21ese34399 0.0 10291191
18:00+18ese365336 0.0 1029327
21:00+12ese227454 0.0 102836